User: anonymous   Login
Location: Roanoke
(37.2710°N, 79.9420°W)
Time: 19:53:03
(UTC-05:00)
Language:

FENGYUN 3A - Orbit

View from above orbital plane
View from above orbital plane
View from above satellite
View from above satellite

Ground track
Ground track

The orbit data is extracted from the following two-line orbital elements,

1 32958U 08026A   14326.37527925  .00000204  00000-0  11693-3 0  5613
2 32958 098.5341 019.7161 0010511 117.5790 242.6467 14.19494655336283
Epoch (UTC): 22 November 2014 09:00:24
Eccentricity: 0.0010511
inclination: 98.5341°
perigee height: 819 km
apogee height: 834 km
right ascension of ascending node: 19.7161°
argument of perigee: 117.5790°
revolutions per day: 14.19494655
mean anomaly at epoch: 242.6467°
orbit number at epoch: 33628

The dashed part of the orbit path shows where the satellite is in the earth's shadow,  

DLR